Location: Home
(42.5358°N, 72.7383°W)
Time: 18:53:02
(UTC-05:00)

Transit 4A - Pass Details

Date: 03 December 2021
Orbit: 863 x 981 km, 66.8° (Epoch: 23 January)

Event Time Altitude Azimuth Distance (km) Brightness Sun altitude
Rises 21:56:18 0° 285° (WNW) 3,500 - -60.2°
Reaches altitude 10° 22:01:53 10° 328° (NNW) 2,600 - -61.1°
Maximum altitude 22:02:37 10° 335° (NNW) 2,590 - -61.2°
Drops below altitude 10° 22:03:21 10° 342° (NNW) 2,611 - -61.3°
Sets 22:09:06 0° 24° (NNE) 3,598 - -62.1°
